Kangerlussuaq

KL  EN  DA
ASIAQ
Weather Now GREENLAND SURVEY
Updated [WGT/WGST] Temperature [°C] Wind [m/s] Air pressure [hPa] Relative humidity [%] Precipitation [mm]
Present Wind chill Speed Max
24.09 02:00-8,3-13,93,4 ⇙4,5100866n/a
24.09 01:00-7,2-14,55,9 ⇐6,3100862n/a
24.09 00:00-6,8-13,04,5 ⇙5,7100954n/a
23.09 23:00-6,8-13,34,9 ⇙5,5101057n/a
23.09 22:00-6,2-12,75,0 ⇐6,0101156n/a
23.09 21:00-5,6-11,64,6 ⇙5,5101256n/a
23.09 20:00-4,3-9,13,5 ⇐4,4101253n/a
23.09 19:00-3,3-7,73,2 ⇙5,3101352n/a
23.09 18:00-1,4-5,93,9 ⇐5,3101346n/a
23.09 17:00-0,4-5,04,4 ⇐5,8101449n/a
23.09 16:000,4-4,24,7 ⇐6,7101452n/a
23.09 15:000,5-4,35,0 ⇐6,4101451n/a
23.09 14:000,8-4,35,8 ⇐6,8101452n/a
23.09 13:000,8-4,05,1 ⇐6,5101550n/a
23.09 12:000,4-4,24,7 ⇐5,8101552n/a
23.09 11:00-0,8-5,95,0 ⇐5,9101559n/a
23.09 10:00-1,5-6,24,1 ⇐5,2101568n/a
23.09 09:00-2,9-7,73,8 ⇐4,7101580n/a
23.09 08:00-4,2-10,04,7 ⇐5,6101489n/a
23.09 07:00-3,8-8,13,0 ⇙3,9101489n/a
23.09 06:00-3,4-7,83,2 ⇙4,3101389n/a
23.09 05:00-3,1-7,23,0 ⇙4,1101391n/a
23.09 04:00-3,0-7,13,0 ⇙3,8101292n/a
23.09 03:00-1,6-3,91,7 ⇙2,3101289n/a
23.09 02:00-1,4-4,12,0 ⇙2,6101288n/a
Position: (67.013333333333,-50.72712222)

[Back]